Location: ??????
(56.0120°N, 39.1740°E)
Time: 10:53:19
(UTC+00:00)

ARIANE 6 FM1 Upper Stage - Visible Passes

Search period start: 11 June 2026 00:00
Search period end: 21 June 2026 00:00
Orbit: 528 x 599 km, 62.0° (Epoch: 10 June)

Date Brightness Start Highest point End Pass type
(mag) Time Alt. Az. Time Alt. Az. Time Alt. Az.
11 Jun 4.6 22:06:17 11° SSE 22:08:45 17° ESE 22:11:22 10° E visible
12 Jun 4.2 22:05:20 13° S 22:07:54 22° SE 22:11:04 10° ENE visible
13 Jun 3.8 22:04:20 14° S 22:07:06 28° SE 22:10:37 10° ENE visible
14 Jun 3.4 22:03:16 15° SSW 22:06:19 35° SE 22:10:05 10° ENE visible
15 Jun 3.1 22:02:08 13° SSW 22:05:34 46° SE 22:09:30 10° ENE visible
16 Jun 4.7 20:25:00 11° SE 20:26:35 13° ESE 20:28:33 10° E visible
16 Jun 2.7 22:00:55 11° SW 22:04:49 59° SE 22:08:52 10° ENE visible
17 Jun 4.3 20:23:41 13° SSE 20:25:42 17° ESE 20:28:27 10° E visible
17 Jun 2.6 21:59:58 10° SW 22:04:07 74° SE 22:08:12 10° ENE visible
18 Jun 4.0 20:22:12 13° S 20:24:51 22° SE 20:28:06 10° ENE visible
18 Jun 2.6 21:59:15 10° SW 22:03:25 89° NW 22:07:31 10° ENE visible
19 Jun 3.6 20:20:33 11° S 20:24:01 29° SE 20:27:36 10° ENE visible
19 Jun 2.8 21:58:35 10° WSW 22:02:45 74° NNW 22:06:50 10° NE visible
20 Jun 3.2 20:19:22 10° SSW 20:23:13 37° SE 20:27:01 10° ENE visible
20 Jun 3.1 21:57:58 10° WSW 22:02:05 62° NNW 22:06:09 10° NE visible
